Hourly Weather Roundup
Issued by NWS Central Illinois

Home | Current Version | Previous Version | Text Only | Print | Product List | Glossary On
Versions: 1 2 3 4 5 6 7 8 9 10 11 12 13 14 15 16 17 18 19 20 21 22 23 24 25 26 27 28 29 30 31 32 33 34 35 36 37 38 39 40 41 42 43 44 45 46 47 48 49 50
000
NZUS43 KILX 200610
HWRILX

AREA WEATHER ROUNDUP
NATIONAL WEATHER SERVICE, LINCOLN IL
100 AM CDT SAT SEP 20 2014


CITY           SKY/WX    TMP DP  RH WIND       PRES   REMARKS
BLOOMINGTON    CLEAR     59  54  83 S12       29.98F
CHAMPAIGN      CLEAR     59  53  80 S9        30.00F
6HR MIN TEMP:  58; 6HR MAX TEMP:  65;

DECATUR        CLEAR     62  54  74 S10       30.00F
6HR MIN TEMP:  56; 6HR MAX TEMP:  68;

FLORA          CLEAR     54  53  97 CALM      30.03F FOG
6HR MIN TEMP:  53; 6HR MAX TEMP:  68;

GALESBURG      CLEAR     61  57  89 S8        29.93S
JACKSONVILLE   CLEAR     66  58  76 S9        29.97F
6HR MIN TEMP:  64; 6HR MAX TEMP:  72; 6HR PCP:  0.01;

LACON          CLEAR     63  54  71 SW7       29.92F
6HR MIN TEMP:  60; 6HR MAX TEMP:  68;

LAWRENCEVILLE  CLEAR     54  52  93 CALM      30.04F FOG
6HR MIN TEMP:  54; 6HR MAX TEMP:  69;

LITCHFIELD     CLEAR     55  54  94 S6        30.01F
$$


CITY           SKY/WX    TMP DP  RH WIND       PRES   REMARKS
LINCOLN        CLEAR     60  55  82 S7        29.95F
6HR MIN TEMP:  59; 6HR MAX TEMP:  70;

MACOMB         CLEAR     62  57  84 S9        29.95F
MATTOON        CLEAR     59  54  83 S6        30.01F
6HR MIN TEMP:  56; 6HR MAX TEMP:  68;

MT CARMEL AP   CLEAR     55  54  94 CALM      30.04S
OLNEY-NOBLE AP CLEAR     52  52 100 CALM      30.03F
PARIS          CLEAR     52  51  98 S5        30.03F
6HR MIN TEMP:  50; 6HR MAX TEMP:  62;

PEORIA         CLEAR     64  55  72 S12       29.94F
6HR MIN TEMP:  64; 6HR MAX TEMP:  70;

PONTIAC        CLEAR     59  54  82 S7        29.95F
RANTOUL        CLEAR     57  51  81 S6        30.00F
6HR MIN TEMP:  55; 6HR MAX TEMP:  67;

ROBINSON       CLEAR     54  53  99 CALM      30.04F FOG
6HR MIN TEMP:  53; 6HR MAX TEMP:  71;

SPRINGFIELD    CLEAR     64  55  72 S7        29.97F
6HR MIN TEMP:  62; 6HR MAX TEMP:  71;

TAYLORVILLE    CLEAR     55  54  94 S6        30.00F
$$

...REGIONAL REPORTS...


CITY           SKY/WX    TMP DP  RH WIND       PRES   REMARKS
CHICAGO O`HARE CLEAR     65  49  56 SW13      29.92F
KANKAKEE       CLEAR     58  52  80 S9        29.96F
MOLINE         CLEAR     66  56  70 S8        29.90S
MOUNT VERNON   CLEAR     54  52  94 CALM      30.03F
PITTSFIELD     CLEAR     63  58  83 S6        29.97F
QUINCY         CLEAR     64  58  80 S8        29.94F
ROCKFORD       CLEAR     63  53  70 S9        29.93F
$$


CITY           SKY/WX    TMP DP  RH WIND       PRES   REMARKS
BURLINGTON     CLEAR     65  59  81 S9        29.91F
CEDAR RAPIDS   PTCLDY    63  61  93 S10       29.87R
DES MOINES     CLOUDY    72  66  81 SW15      29.83S
KIRKSVILLE     CLEAR     67  62  84 S10       29.93F
OTTUMWA        PTCLDY    66  62  87 S12       29.89R
ST LOUIS       PTCLDY    68  59  73 S6        30.01S
$$


CITY           SKY/WX    TMP DP  RH WIND       PRES   REMARKS
TERRE HAUTE    CLEAR     53  50  89 CALM      30.03F
EVANSVILLE     CLEAR     60  57  89 CALM      30.05F
INDIANAPOLIS   PTCLDY    58  51  78 CALM      30.04F
LAFAYETTE      CLEAR     56  50  80 CALM      30.01F
MADISON        CLEAR     66  54  65 S10       29.85F
MILWAUKEE      PTCLDY    64  48  56 SW14      29.86F
$$





USA.gov is the U.S. government's official web portal to all federal, state and local government web resources and services.